Tracking 27402 objects as of 2-Jun-2023
HD Live streaming from Space Station
objects crossing your sky now

FAISAT

Track FAISAT now!
10-day predictions
FAISAT is classified as:


NORAD ID: 23465
Int'l Code: 1995-002C
Perigee: 971.9 km
Apogee: 1,027.6 km
Inclination: 82.9 °
Period: 105.0 minutes
Semi major axis: 7370 km
RCS: 0.6839 m2 (medium)
Launch date: January 24, 1995
Source: United States (US)
Launch site: PLESETSK MISSILE AND SPACE COMPLEX (PKMTR)
Your satellite tracking list
Your tracking list is empty




NASA's NSSDC Master Catalog

Two Line Element Set (TLE):
1 23465U 95002C   23153.43311692  .00000035  00000-0  22025-4 0  9992
2 23465  82.9254 123.6306 0037798  11.9428 112.0145 13.71933885419794
Source of the keplerian elements: AFSPC